Regional Weather Roundup
Issued by NWS

Home | Current Version | Previous Version | Graphics & Text | Print | Product List | Glossary On
Versions: 1 2 3 4 5 6 7 8 9 10 11 12 13 14 15 16 17 18 19 20 21 22 23 24 25 26 27 28 29 30 31 32 33 34 35 36 37 38 39 40 41 42 43 44 45 46 47 48 49 50
000
ASUS43 KMKX 282300
RWRWI

WISCONSIN REGIONAL WEATHER ROUNDUP
NATIONAL WEATHER SERVICE MILWAUKEE/SULLIVAN WI
600 PM CDT TUE JUL 28 2015

NOTE: "FAIR" INDICATES FEW OR NO CLOUDS BELOW 12,000 FEET WITH NO
SIGNIFICANT WEATHER AND/OR OBSTRUCTIONS TO VISIBILITY.

WIZ001-002-006>008-014>016-023>028-290000-
NORTHWEST WISCONSIN

CITY           SKY/WX    TMP DP  RH WIND       PRES   REMARKS
SUPERIOR ARPT  MOSUNNY   84  70  63 SW14      29.75S HX  88
ASHLAND        MOSUNNY   84  71  65 SW7       29.79S HX  89
HAYWARD        MOSUNNY   82  68  62 SW9G16    29.83S HX  85
SIREN          PTSUNNY   82  69  64 SW12      29.82R HX  85
CUMBERLAND     CLOUDY    79  68  69 SW8       29.84S HX  81
RICE LAKE      CLOUDY    80  71  73 S6        29.85S HX  84
CHETEK         CLOUDY    81  73  76 SE6       29.84S HX  86
LADYSMITH      MOSUNNY   84  70  63 S10       29.86F HX  89
EAU CLAIRE     MOSUNNY   86  71  60 S12       29.83S HX  91
MENOMONIE      SUNNY     85  72  65 S8        29.84S HX  91
NEW RICHMOND   CLOUDY    80  71  73 SW5       29.84R HX  84
OSCEOLA        CLOUDY    81  71  70 SW5       29.84F HX  85
$$

WIZ003>005-009-010-017-018-290000-
NORTH CENTRAL WISCONSIN

CITY           SKY/WX    TMP DP  RH WIND       PRES   REMARKS
MANITOWISH WTR PTSUNNY   80  69  68 SW12G18   29.88S HX  83
ARBOR VITAE    MOSUNNY   82  69  65 S13G22    29.89S HX  86
WOODRUFF       MOSUNNY   82  69  65 S13G22    29.89S HX  86
RHINELANDER    MOSUNNY   80  66  62 S10       29.91F HX  82
EAGLE RIVER    PTSUNNY   81  63  53 S9        29.90S HX  82
LAND O LAKES   PTSUNNY   81  65  57 S8G18     29.90F HX  83
PHILLIPS       MOSUNNY   81  70  69 S13       29.87S HX  84
TOMAHAWK       MOSUNNY   80  68  66 S5        29.90F HX  82
MEDFORD        SUNNY     79  70  73 S9G16     29.89F HX  81
MERRILL        NOT AVBL
$$

WIZ029-030-035-036-043>047-290000-
CENTRAL WISCONSIN

CITY           SKY/WX    TMP DP  RH WIND       PRES   REMARKS
WAUSAU         CLOUDY    84  68  58 S12       29.88S HX  87
MOSINEE        NOT AVBL
MARSHFIELD     PTSUNNY   82  69  64 SW10      29.90S HX  85
STEVENS POINT  PTSUNNY   81  68  65 S9        29.91R HX  83
WAUPACA        PTSUNNY   87  69  54 SE10      29.89F HX  91
WAUTOMA        NOT AVBL
WISC RAPIDS    PTSUNNY   84  69  60 S8        29.90F HX  88
CAMP DOUGLAS   NOT AVBL
$$

WIZ011>013-019>022-031-037>040-048>050-290000-
NORTHEAST WISCONSIN

CITY           SKY/WX    TMP DP  RH WIND       PRES   REMARKS
ANTIGO         PTSUNNY   81  67  63 S14       29.93S HX  83
SHAWANO        PTSUNNY   86  65  49 S3        29.90F HX  88
OCONTO         PTSUNNY   81  69  65 S7        29.90S HX  84
STURGEON BAY   PTSUNNY   77  61  57 S10       29.95R
GREEN BAY      CLOUDY    83  66  56 S10       29.91S HX  85
MANITOWOC      NOT AVBL
APPLETON       PTSUNNY   82  64  54 S12       29.92R HX  84
CLINTONVILLE   PTSUNNY   86  64  48 S7        29.89F HX  87
OSHKOSH        CLOUDY    83  67  58 SE9       29.90R HX  85
$$

WIZ032>034-041-042-053>061-290000-
SOUTHWEST WISCONSIN

CITY           SKY/WX    TMP DP  RH WIND       PRES   REMARKS
LA CROSSE      MOSUNNY   85  73  67 S8        29.86S HX  91
SPARTA         MOSUNNY   81  69  66 S6        29.90R HX  84
VIROQUA        MOSUNNY   79  72  78 S6        29.92S HX  82
BOSCOBEL       MOSUNNY   82  71  69 SW7       29.90S HX  86
PRAIRIE DU CHI CLOUDY    80  68  66 S3        29.90R HX  82
PLATTEVILLE    PTSUNNY   81  74  80 SW6       29.93S HX  86
$$

WIZ056-057-062-063-064-067-068-290000-
SOUTH CENTRAL WISCONSIN

CITY           SKY/WX    TMP DP  RH WIND       PRES   REMARKS
REEDSBURG      MOSUNNY   84  73  68 S9        29.91R HX  90
BARABOO/DELLS  MOSUNNY   83  69  62 SW12      29.92R HX  87
LONE ROCK      NOT AVBL
MINERAL POINT  SUNNY     82  72  69 SW6       29.93S HX  87
MADISON        PTSUNNY   85  71  63 SW8       29.91R HX  90
MIDDLETON      PTSUNNY   87  71  58 SW9       29.92R HX  92
WATERTOWN      PTSUNNY   84  74  71 S9        29.91R HX  90
MONROE         MOSUNNY   82  72  69 S14       29.93R HX  87
JANESVILLE     PTSUNNY   86  72  62 SW9       29.91R HX  92
$$

WIZ051-052-058>065-066-070>072-290000-
SOUTHEAST WISCONSIN

CITY           SKY/WX    TMP DP  RH WIND       PRES   REMARKS
MILWAUKEE      CLOUDY    82  67  60 S13       29.91F HX  84
WAUKESHA       PTSUNNY   81  66  61 SE7       29.94R HX  83
MILWAUKEE/TIMM SUNNY     82  64  54 S12       29.92S HX  84
RACINE         CLOUDY    83  66  56 S12       29.93S HX  85
BURLINGTON     CLOUDY    82  68  63 SE6       29.91F HX  84
KENOSHA        CLOUDY    83  69  62 S9        29.92S HX  86
FOND DU LAC    CLOUDY    83  68  60 SE10      29.91S HX  86
SHEBOYGAN      CLOUDY    78  66  66 S8        29.93R HX  80
WEST BEND      CLOUDY    81  64  57 S8        29.92S HX  82
JUNEAU         PTSUNNY   83  72  69 S8        29.92S HX  89
$$

LSZ147-162-290000-
LAKE SUPERIOR

STATION/POSITION TIME  TEMP    WIND        PRES    WAVE
                       AIR SEA DIR/SP/G            HT/PER
                 (UTC) (F)     (DEG/KT/KT) (MB)    (FT/S)
W MID LAKE BUOY  2150   68 62  140/ 12/ 12 1008.5F   1/ 3
DEVILS ISLAND    2200   79     350/  3/  3 1008.0F
SAXON HARBOR     2240   86                 1008.5F
$$

LMZ867-665-643>646-290000-
LAKE MICHIGAN

STATION/POSITION TIME  TEMP    WIND        PRES    WAVE
                       AIR SEA DIR/SP/G            HT/PER
                 (UTC) (F)     (DEG/KT/KT) (MB)    (FT/S)
CHAMBERS ISLAND  2200   80     130/  4/ 10 1012.5F
S GREEN BAY BUOY 2200   79 76  150/ 14/ 16 1013.9R
N MID LAKE BUOY  2150   72 71  170/  4/  4 1013.2F   1
NORTHPORT PIER   2200   76     150/  6/ 10 1012.9F
SISTER BAY       2229   79     170/  9/ 13   N/A
ALGOMA LAKESHORE 2212          220/  9/ 10   N/A
KEWAUNEE LAKESHO 2200   70     180/  5/  7 1012.9R
SHEBOYGAN LAKESH 2200   72     190/ 10/ 12 1013.0R
PORT WASHINGTON  2200   76     160/  4/  6 1013.2R
ATWATER BUOY     2200   74     180/  8/ 10 1014.5R
MILWAUKEE LAKESH 2200   75     160/ 11/ 12   N/A
KENOSHA   LAKESH 2200   78     200/  7/ 10 1012.5R
$$

TC  - TEMPERATURE IN CELSIUS
VSB - VISIBILITY IN STATUTE MILES
WCI - WIND CHILL INDEX
HX  - HEAT INDEX




USA.gov is the U.S. government's official web portal to all federal, state and local government web resources and services.